{"data":{"norad_id":60384,"intl_designator":"2024-140F","name":"QIANFAN-6","alt_names":[],"object_type":"PAYLOAD","status":"ACTIVE","operator":null,"country":"PRC","launch_date":"2024-08-06","launch_site_code":"TAISC","launch_vehicle":null,"mission":null,"orbit_class":"UNKNOWN","rcs_meters":null,"size_class":null,"mass_kg":null,"dimensions":null,"purposes":[],"wikipedia_slug":null,"has_3d_model":false,"image_url":null,"decayed_at":null,"tle_current":{"epoch":"2026-05-25T03:48:48.082176Z","epoch_age_seconds":61277,"freshness":"FRESH","line1":"1 60384U 24140F   26145.15888984  .00000087  00000+0  11504-3 0  9999","line2":"2 60384  88.9719 282.0720 0015102  86.6409 273.6469 13.51009001 89563","mean_motion":13.51009001,"eccentricity":0.0015102,"inclination_deg":88.9719,"raan_deg":282.072,"arg_perigee_deg":86.6409,"mean_anomaly_deg":273.6469,"bstar":0.00011504,"rev_number":8956,"period_min":106.58700267238,"perigee_km":1057.3025252681,"apogee_km":1079.7944941817,"semimajor_km":7446.6855097249,"source":"CELESTRAK","updated_at":"2026-05-25T13:38:02.040347Z"}}}